This is the latest recevied weather packets stored in our database for station/object N8SDR. If no packets are shown the sender has not sent any weather packets the latest 10 day(s).
| Time | Temp. | Humidity | Pressure | Rain* | Wind** | Luminosity | Snow |
|---|---|---|---|---|---|---|---|
| 1777994160 | 19.44° C | 78% | 1005.4 hPa | 0 mm | - | 379 W/m² | - |
| 1777993858 | 19.44° C | 79% | 1005.3 hPa | 0 mm | - | 409 W/m² | - |
| 1777993554 | 19.44° C | 80% | 1005.6 hPa | 0 mm | - | 399 W/m² | - |
| 1777993250 | 19.44° C | 80% | 1005.3 hPa | 0 mm | - | 448 W/m² | - |
| 1777992946 | 18.89° C | 82% | 1005.4 hPa | 0 mm | - | 453 W/m² | - |
| 1777992645 | 18.89° C | 81% | 1005.5 hPa | 0 mm | - | 478 W/m² | - |
| 1777992342 | 18.89° C | 82% | 1005.5 hPa | 0 mm | - | 460 W/m² | - |
| 1777992039 | 18.89° C | 82% | 1005.6 hPa | 0 mm | - | 412 W/m² | - |
| 1777991737 | 18.33° C | 83% | 1005.5 hPa | 0 mm | - | 488 W/m² | - |
| 1777991434 | 18.33° C | 84% | 1005.3 hPa | 0 mm | - | 422 W/m² | - |
| 1777991131 | 17.78° C | 83% | 1005.5 hPa | 0 mm | - | 446 W/m² | - |
| 1777990828 | 18.33° C | 84% | 1005.2 hPa | 0 mm | - | 418 W/m² | - |
| 1777990526 | 17.78° C | 86% | 1005.1 hPa | 0 mm | - | 413 W/m² | - |
| 1777989919 | 17.22° C | 88% | 1005.1 hPa | 0 mm | - | 390 W/m² | - |
| 1777989616 | 16.67° C | 88% | 1005.4 hPa | 0 mm | - | 365 W/m² | - |
| 1777989312 | 16.67° C | 91% | 1005 hPa | 0 mm | - | 324 W/m² | - |
| 1777989009 | 16.67° C | 93% | 1004.9 hPa | 0 mm | - | 344 W/m² | - |
| 1777988705 | 16.11° C | 93% | 1005 hPa | 0 mm | - | 340 W/m² | - |
| 1777988402 | 15.56° C | 95% | 1004.8 hPa | 0 mm | - | 293 W/m² | - |
| 1777988099 | 15.56° C | 96% | 1004.8 hPa | 0 mm | - | 291 W/m² | - |
| 1777987794 | 15° C | 99% | 1004.8 hPa | 0 mm | - | 265 W/m² | - |
| 1777987491 | 15° C | 99% | 1004.6 hPa | 0 mm | - | 180 W/m² | - |
| 1777987189 | 14.44° C | 99% | 1004.6 hPa | 0 mm | - | 170 W/m² | - |
| 1777986885 | 14.44° C | 99% | 1004.4 hPa | 0 mm | - | 147 W/m² | - |
| 1777986583 | 14.44° C | 99% | 1004.3 hPa | 0 mm | - | 102 W/m² | - |
* Rain latest hour (hover to see other rain measurements)
** Current wind speed in m/s (hover to see current wind gust speed)